Weather History for Sterling, IL

Change the Weather History Date:

Tuesday, January 14, 2014

  Actual Average Record
Temperature  
Mean Temperature 27 °F -  
Max Temperature 35 °F 25 °F 37 °F (2002)
Min Temperature 19 °F 12 °F -4 °F (1997)
Degree Days  
Heating Degree Days 38    
Moisture  
Dew Point 23 °F    
Average Humidity 80    
Maximum Humidity 93    
Minimum Humidity 64    
Precipitation  
Precipitation 0.02 in - - ()
Sea Level Pressure  
Sea Level Pressure 29.75 in    
Wind  
Wind Speed 13 mph (West)    
Max Wind Speed 34 mph    
Max Gust Speed 45 mph    
Visibility 9 miles    
Events      
Averages and records for this station are not official NWS values.
T = Trace of Precipitation, MM = Missing Value Source: NWS Daily Summary

Daily Weather History Graph

Daily Weather History Graph

Search for Another Location

Airport:

Trip Planner

Search our weather history database for the weather conditions in past years. The results will help you decide how hot, cold, wet, or windy it might be!

Date:

Astronomy

Jan. 14, 2014 Rise Set
Actual Time 7:23 AM CST 4:52 PM CST
Civil Twilight 6:53 AM CST 5:22 PM CST
Nautical Twilight 6:18 AM CST 5:57 PM CST
Astronomical Twilight 5:45 AM CST 6:30 PM CST
Moon 3:57 PM CST (1/14) 5:58 AM CST (1/14)
Length of Visible Light 10h 29m
Length of Day
9h 28m
Waxing Gibbous, 98% of the Moon is Illuminated
Jan 14
Waxing Gibbous
Jan 15
Full
Jan 23
Last Quarter
Jan 30
New
Feb 6
First Quarter

Hourly Weather History & Observations

Time (CST) Temp. Windchill Dew Point Humidity Pressure Visibility Wind Dir Wind Speed Gust Speed Precip Events Conditions
12:15 AM 30.2 °F 22.6 °F 26.6 °F 86% 29.75 in 10.0 mi West 8.1 mph - N/A   Mostly Cloudy
12:35 AM 30.2 °F 26.7 °F 24.8 °F 80% 29.74 in 10.0 mi West 3.5 mph - N/A   Mostly Cloudy
12:55 AM 30.2 °F 25.4 °F 26.6 °F 86% 29.73 in 10.0 mi WSW 4.6 mph - N/A   Mostly Cloudy
1:15 AM 30.2 °F - 24.8 °F 80% 29.73 in 10.0 mi Calm Calm - N/A   Scattered Clouds
1:35 AM 30.2 °F 26.7 °F 24.8 °F 80% 29.73 in 10.0 mi SW 3.5 mph - N/A   Clear
1:55 AM 30.2 °F - 24.8 °F 80% 29.73 in 10.0 mi Calm Calm - N/A   Clear
2:15 AM 28.4 °F - 24.8 °F 86% 29.72 in 10.0 mi Calm Calm - N/A   Clear
2:35 AM 30.2 °F 25.4 °F 26.6 °F 86% 29.71 in 10.0 mi South 4.6 mph - N/A   Mostly Cloudy
2:55 AM 30.2 °F 24.3 °F 24.8 °F 80% 29.70 in 10.0 mi South 5.8 mph - N/A   Overcast
3:15 AM 30.2 °F 26.7 °F 24.8 °F 80% 29.69 in 10.0 mi South 3.5 mph - N/A   Overcast
3:35 AM 30.2 °F 25.4 °F 26.6 °F 86% 29.68 in 10.0 mi South 4.6 mph - N/A   Overcast
3:55 AM 30.2 °F 23.4 °F 26.6 °F 86% 29.66 in 10.0 mi SSE 6.9 mph - N/A   Scattered Clouds
4:15 AM 30.2 °F 24.3 °F 26.6 °F 86% 29.64 in 10.0 mi South 5.8 mph - N/A   Clear
4:35 AM 30.2 °F 23.4 °F 26.6 °F 86% 29.63 in 10.0 mi South 6.9 mph - N/A   Clear
4:55 AM 30.2 °F 22.6 °F 24.8 °F 80% 29.63 in 10.0 mi South 8.1 mph - N/A   Clear
5:15 AM 32.0 °F 24.2 °F 26.6 °F 80% 29.62 in 10.0 mi South 9.2 mph - N/A   Clear
5:35 AM 32.0 °F 24.2 °F 26.6 °F 80% 29.60 in 10.0 mi South 9.2 mph - N/A   Clear
5:55 AM 32.0 °F 24.2 °F 26.6 °F 80% 29.59 in 10.0 mi South 9.2 mph - N/A   Clear
6:15 AM 33.8 °F 27.7 °F 26.6 °F 75% 29.59 in 10.0 mi South 6.9 mph 17.3 mph N/A   Clear
6:35 AM 33.8 °F 27.0 °F 26.6 °F 75% 29.60 in 10.0 mi SW 8.1 mph - N/A   Mostly Cloudy
6:55 AM 33.8 °F 27.7 °F 26.6 °F 75% 29.60 in 10.0 mi SW 6.9 mph - N/A   Overcast
7:15 AM 33.8 °F 27.7 °F 26.6 °F 75% 29.60 in 10.0 mi SW 6.9 mph - N/A   Overcast
7:35 AM 33.8 °F 26.4 °F 26.6 °F 75% 29.60 in 3.0 mi SW 9.2 mph 16.1 mph N/A   Overcast
7:55 AM 33.8 °F 27.7 °F 28.4 °F 81% 29.60 in 0.5 mi SW 6.9 mph - N/A   Overcast
8:15 AM 33.8 °F 27.0 °F 30.2 °F 87% 29.60 in 3.0 mi WSW 8.1 mph - N/A   Overcast
8:35 AM 33.8 °F 25.8 °F 30.2 °F 87% 29.61 in 5.0 mi WSW 10.4 mph 20.7 mph N/A   Overcast
8:55 AM 33.8 °F 24.8 °F 32.0 °F 93% 29.62 in 5.0 mi West 12.7 mph 19.6 mph N/A   Overcast
9:15 AM 33.8 °F 24.3 °F 32.0 °F 93% 29.62 in 4.0 mi West 13.8 mph 20.7 mph 0.02 in   Overcast
9:35 AM 33.8 °F 24.8 °F 32.0 °F 93% 29.63 in 9.0 mi West 12.7 mph 17.3 mph 0.02 in   Overcast
9:55 AM 35.6 °F 25.9 °F 32.0 °F 87% 29.64 in 10.0 mi West 16.1 mph 23.0 mph 0.02 in   Overcast
10:15 AM 35.6 °F 23.7 °F 32.0 °F 87% 29.65 in 10.0 mi WNW 24.2 mph 27.6 mph N/A   Overcast
10:35 AM 35.6 °F 23.4 °F 30.2 °F 81% 29.66 in 10.0 mi WNW 25.3 mph 32.2 mph N/A   Overcast
10:55 AM - - - N/A% 29.67 in 10.0 mi WNW 32.2 mph 40.3 mph N/A   Overcast
11:15 AM - - - N/A% 29.67 in 10.0 mi WNW 33.4 mph 39.1 mph N/A   Overcast
11:35 AM 33.8 °F 20.1 °F 24.8 °F 70% 29.68 in 10.0 mi WNW 29.9 mph 41.4 mph N/A   Overcast
11:55 AM - - - N/A% 29.68 in 10.0 mi NW 29.9 mph 41.4 mph N/A   Overcast
12:15 PM - - - N/A% 29.69 in 10.0 mi WNW 28.8 mph 39.1 mph N/A   Overcast
12:35 PM 32.0 °F 17.9 °F 21.2 °F 64% 29.69 in 10.0 mi WNW 28.8 mph 40.3 mph N/A   Overcast
12:55 PM - - - N/A% 29.69 in 10.0 mi WNW 27.6 mph 44.9 mph N/A   Overcast
1:15 PM - - - N/A% 29.70 in 10.0 mi WNW 29.9 mph 38.0 mph N/A   Overcast
1:35 PM - - - N/A% 29.71 in 10.0 mi WNW 32.2 mph 44.9 mph N/A   Overcast
1:55 PM - - - N/A% 29.72 in 10.0 mi WNW 34.5 mph 43.7 mph N/A   Overcast
2:15 PM - - - N/A% 29.73 in 10.0 mi WNW 31.1 mph 40.3 mph N/A   Overcast
2:35 PM 30.2 °F 16.2 °F 19.4 °F 64% 29.75 in 10.0 mi WNW 25.3 mph 38.0 mph N/A   Overcast
2:55 PM - - - N/A% 29.76 in 10.0 mi WNW 32.2 mph 41.4 mph N/A   Overcast
3:15 PM - - - N/A% 29.77 in 10.0 mi WNW 33.4 mph 38.0 mph N/A   Overcast
3:35 PM - - - N/A% 29.77 in 10.0 mi WNW 31.1 mph 44.9 mph N/A   Overcast
3:55 PM - - - N/A% 29.79 in 10.0 mi WNW 29.9 mph 38.0 mph N/A   Overcast
4:15 PM - - - N/A% 29.80 in 10.0 mi WNW 27.6 mph 41.4 mph N/A   Overcast
4:35 PM 28.4 °F 12.7 °F 19.4 °F 69% 29.82 in 10.0 mi WNW 29.9 mph 35.7 mph N/A   Overcast
4:55 PM 26.6 °F 11.4 °F 19.4 °F 74% 29.83 in 8.0 mi WNW 25.3 mph 33.4 mph N/A   Overcast
5:15 PM - - - N/A% 29.84 in 5.0 mi WNW 28.8 mph 35.7 mph N/A   Overcast
5:35 PM 24.8 °F 8.7 °F 19.4 °F 80% 29.86 in 4.0 mi WNW 26.5 mph 35.7 mph N/A   Overcast
5:55 PM 24.8 °F 9.3 °F 19.4 °F 80% 29.86 in 5.0 mi WNW 24.2 mph - N/A   Overcast
6:15 PM 24.8 °F 10.7 °F 19.4 °F 80% 29.87 in 6.0 mi WNW 19.6 mph 29.9 mph N/A   Mostly Cloudy
6:35 PM 24.8 °F 9.3 °F 17.6 °F 74% 29.88 in 10.0 mi WNW 24.2 mph 33.4 mph N/A   Mostly Cloudy
6:55 PM 23.0 °F 7.6 °F 15.8 °F 74% 29.88 in 10.0 mi WNW 21.9 mph 25.3 mph N/A   Mostly Cloudy
7:15 PM 23.0 °F 7.2 °F 17.6 °F 80% 29.90 in 7.0 mi WNW 23.0 mph 32.2 mph N/A   Mostly Cloudy
7:35 PM 23.0 °F 6.6 °F 17.6 °F 80% 29.90 in 8.0 mi NW 25.3 mph 32.2 mph N/A   Partly Cloudy
7:55 PM 23.0 °F 9.6 °F 17.6 °F 80% 29.90 in 4.0 mi WNW 16.1 mph - N/A   Partly Cloudy
8:15 PM 21.2 °F 6.8 °F 17.6 °F 86% 29.91 in 6.0 mi WNW 17.3 mph 26.5 mph N/A   Mostly Cloudy
8:35 PM 21.2 °F 5.2 °F 15.8 °F 80% 29.92 in 10.0 mi NW 21.9 mph 27.6 mph N/A   Mostly Cloudy
8:55 PM 21.2 °F 6.8 °F 15.8 °F 80% 29.93 in 6.0 mi WNW 17.3 mph - N/A   Mostly Cloudy
9:15 PM 21.2 °F 6.8 °F 15.8 °F 80% 29.93 in 5.0 mi NW 17.3 mph 24.2 mph N/A   Mostly Cloudy
9:35 PM 21.2 °F 6.0 °F 15.8 °F 80% 29.93 in 9.0 mi NW 19.6 mph 26.5 mph N/A   Partly Cloudy
9:55 PM 21.2 °F 6.4 °F 15.8 °F 80% 29.94 in 8.0 mi NW 18.4 mph - N/A   Clear
10:15 PM 21.2 °F 7.3 °F 14.0 °F 74% 29.94 in 10.0 mi NW 16.1 mph 23.0 mph N/A   Clear
10:35 PM 21.2 °F 8.3 °F 14.0 °F 74% 29.95 in 10.0 mi NW 13.8 mph 23.0 mph N/A   Clear
10:55 PM 19.4 °F 5.0 °F 12.2 °F 74% 29.95 in 10.0 mi NW 16.1 mph 23.0 mph N/A   Partly Cloudy
11:15 PM 19.4 °F 6.6 °F 12.2 °F 74% 29.95 in 10.0 mi NW 12.7 mph - N/A   Mostly Cloudy
11:35 PM 19.4 °F 6.6 °F 12.2 °F 74% 29.96 in 10.0 mi NW 12.7 mph - N/A   Partly Cloudy
11:55 PM 19.4 °F 7.2 °F 12.2 °F 74% 29.97 in 10.0 mi NW 11.5 mph 18.4 mph N/A   Partly Cloudy